This demonstration page uses our WeatherBlox Daily Observations layout. Learn more.

Left ArrowRight Arrow

Hourly Observations for October 8, 2015

Temp ( °F °C ) Dew Point ( °F °C ) Humidity (%) Winds ( mph kmh ) Pressure ( in mb ) Visibility ( mi km ) Precip ( " mm )
12:53 am 00:53 Clear 68 20 54 12.2 61 61 Calm 30.08 1019 10 16 0.00 0.00
1:53 am 01:53 Clear 67 19.4 54 12.2 63 63 N 8 13 30.08 1019 10 16 0.00 0.00
2:53 am 02:53 Clear 66 18.9 53 11.7 63 63 NNE 5 7 30.08 1019 10 16 0.00 0.00
3:53 am 03:53 Clear 66 18.9 53 11.7 63 63 NW 5 7 30.09 1019 10 16 0.00 0.00
4:53 am 04:53 Clear 64 17.8 53 11.7 68 68 Calm 30.06 1018 10 16 0.00 0.00
5:53 am 05:53 Clear 63 17.2 53 11.7 70 70 Calm 30.07 1018 10 16 0.00 0.00
6:53 am 06:53 Clear 62 16.7 52 11.1 70 70 Calm 30.07 1018 10 16 0.00 0.00
7:53 am 07:53 Sunny 61 16.1 52 11.1 72 72 Calm 30.08 1019 10 16 0.00 0.00
9:53 am 09:53 Sunny N/A N/A N/A Calm N/A 10 16 0.00 0.00
10:53 am 10:53 Sunny N/A N/A N/A Calm N/A 10 16 0.00 0.00
12:53 pm 12:53 Sunny 83 28.3 50 10 32 32 SW 6 9 30.06 1018 10 16 0.00 0.00
1:53 pm 13:53 Sunny 85 29.4 49 9.4 29 29 S 6 9 30.03 1017 10 16 0.00 0.00
2:53 pm 14:53 Sunny 86 30 50 10 29 29 S 7 11 30.02 1017 10 16 0.00 0.00
3:53 pm 15:53 Sunny 87 30.6 48 8.9 26 26 SSW 5 7 30.01 1016 10 16 0.00 0.00
4:53 pm 16:53 Sunny 87 30.6 46 7.8 24 24 SSE 7 11 30.00 1016 10 16 0.00 0.00
5:53 pm 17:53 Sunny 87 30.6 48 8.9 26 26 SSE 5 7 30.00 1016 10 16 0.00 0.00
6:53 pm 18:53 Clear 81 27.2 51 10.6 35 35 S 6 9 30.01 1016 10 16 0.00 0.00
7:53 pm 19:53 Clear 76 24.4 53 11.7 45 45 Calm 30.02 1017 10 16 0.00 0.00
8:53 pm 20:53 Clear 74 23.3 53 11.7 48 48 Calm 30.03 1017 10 16 0.00 0.00
9:53 pm 21:53 Clear 69 20.6 52 11.1 55 55 N 5 7 30.04 1017 10 16 0.00 0.00
10:53 pm 22:53 Clear 66 18.9 52 11.1 61 61 Calm 30.04 1017 10 16 0.00 0.00
11:53 pm 23:53 Clear 66 18.9 50 10 56 56 N 3 6 30.04 1017 10 16 0.00 0.00

Powered by AerisWeather